N9OJR Weather Reports


Display with metric or nautical units.
time (UTC)temp
F
wind
direction
speed
MPH
gust
MPH
rain 1hr
in
rain 24hr
in
rain mn
in
humidity
%
barometer
mb
20260506123749 45 281 0.0 2.0 0.00 0.49 0.49 99 1005.8
20260506123248 45 273 0.0 1.0 0.00 0.49 0.49 99 1005.7
20260506122744 45 285 0.0 1.0 0.00 0.49 0.49 99 1005.9
20260506122241 45 286 1.0 2.0 0.00 0.49 0.49 99 1005.8
20260506121740 45 272 0.0 1.0 0.00 0.49 0.49 99 1005.3
20260506121236 45 262 0.0 1.0 0.00 0.49 0.49 99 1005.6
20260506120733 44 10 1.0 2.0 0.00 0.49 0.49 99 1005.4
20260506120231 44 290 0.0 5.0 0.00 0.49 0.49 99 1005.5
20260506115729 44 295 1.0 2.0 0.00 0.49 0.49 99 1005.2
20260506115227 44 291 0.0 2.0 0.00 0.49 0.49 99 1005.3
20260506114724 45 285 0.0 2.0 0.00 0.49 0.49 99 1005.1
20260506114222 44 291 0.0 3.0 0.00 0.49 0.49 99 1005.6
20260506113720 44 313 1.0 3.0 0.00 0.49 0.49 99 1005.6
20260506113217 45 275 0.0 1.0 0.00 0.49 0.49 99 1005.8
20260506112713 45 295 1.0 1.0 0.00 0.49 0.49 99 1005.6
20260506112211 44 285 2.0 3.0 0.00 0.49 0.49 99 1005.2
20260506111708 45 293 1.0 1.0 0.00 0.49 0.49 99 1005.3
20260506111207 45 297 0.0 0.0 0.00 0.49 0.49 99 1004.9
20260506110703 45 276 0.0 1.0 0.00 0.49 0.49 99 1004.8
20260506110201 45 295 0.0 2.0 0.00 0.49 0.49 99 1004.9
20260506105657 45 57 0.0 1.0 0.00 0.49 0.49 99 1005.4
20260506105154 45 295 0.0 2.0 0.00 0.49 0.49 99 1005.2
20260506104652 45 308 1.0 2.0 0.00 0.49 0.49 99 1004.6
20260506104150 44 273 0.0 0.0 0.00 0.49 0.49 99 1004.6
20260506103647 45 274 0.0 0.0 0.00 0.49 0.49 99 1004.5
20260506103143 44 331 2.0 2.0 0.00 0.49 0.49 99 1004.3
20260506102642 44 326 1.0 1.0 0.00 0.49 0.49 99 1004.1
20260506102139 44 283 0.0 1.0 0.00 0.49 0.49 99 1003.7
20260506101635 44 352 2.0 3.0 0.00 0.49 0.49 99 1003.4
20260506101132 44 313 0.0 1.0 0.00 0.49 0.49 99 1004.0
20260506100631 44 279 0.0 1.0 0.00 0.49 0.49 99 1004.0
20260506100128 44 279 0.0 1.0 0.00 0.49 0.49 99 1003.8
20260506095627 44 325 2.0 2.0 0.00 0.49 0.49 99 1003.3
20260506095123 44 285 0.0 1.0 0.00 0.49 0.49 99 1003.4
20260506094621 44 287 1.0 2.0 0.00 0.49 0.49 99 1003.8
20260506094118 44 312 0.0 1.0 0.05 0.49 0.49 99 1004.0
20260506093617 44 266 0.0 1.0 0.00 0.48 0.48 99 1004.2
20260506093114 44 257 0.0 2.0 0.07 0.48 0.48 99 1004.5
20260506092612 44 330 1.0 2.0 0.07 0.48 0.48 99 1004.6
20260506092108 44 289 0.0 1.0 0.00 0.47 0.47 99 1004.5
20260506091606 44 23 1.0 2.0 0.05 0.47 0.47 99 1004.5
20260506091103 44 262 0.0 1.0 0.05 0.47 0.47 99 1004.7
20260506090601 44 310 0.0 1.0 0.07 0.46 0.46 99 1004.5
20260506090057 44 268 0.0 1.0 0.07 0.46 0.46 99 1004.2
20260506085554 44 279 0.0 1.0 0.00 0.45 0.45 99 1004.3
20260506085050 44 279 0.0 1.0 0.00 0.45 0.45 99 1004.3
20260506084548 44 264 0.0 1.0 0.00 0.45 0.45 99 1004.2
20260506084044 44 288 0.0 2.0 0.00 0.45 0.45 99 1004.6
20260506083541 43 356 1.0 2.0 0.00 0.45 0.45 99 1004.5
20260506083038 43 286 0.0 2.0 0.05 0.45 0.45 99 1004.5
20260506082535 43 299 1.0 6.0 0.05 0.45 0.45 99 1004.5
20260506082031 43 318 1.0 5.0 0.00 0.44 0.44 99 1004.2
20260506081529 44 278 1.0 5.0 0.00 0.44 0.44 99 1003.8
20260506081026 44 292 1.0 5.0 0.07 0.44 0.44 99 1004.0
20260506080524 44 307 2.0 6.0 0.12 0.44 0.44 99 1003.9
20260506073507 44 317 1.0 3.0 0.19 0.37 0.37 99 1004.2
20260506073004 44 263 1.0 1.0 0.12 0.35 0.35 99 1004.2
20260506072501 44 289 1.0 2.0 0.12 0.34 0.34 99 1004.0
20260506071959 44 312 0.0 6.0 0.19 0.33 0.33 99 1003.8
20260506071457 44 303 1.0 3.0 0.12 0.31 0.31 99 1003.9
20260506070954 44 328 1.0 3.0 0.12 0.30 0.30 99 1003.6
20260506070451 44 282 0.0 2.0 0.12 0.29 0.29 99 1003.6
20260506062428 46 304 1.0 2.0 0.05 0.21 0.21 99 1003.7
20260506061924 46 312 1.0 2.0 0.12 0.20 0.20 99 1003.8
20260506061421 46 10 1.0 3.0 0.05 0.19 0.19 99 1003.7
20260506060919 46 313 3.0 3.0 0.07 0.18 0.18 99 1003.6
20260506060417 46 342 2.0 5.0 0.12 0.18 0.18 99 1003.8
20260506051348 48 309 1.0 2.0 0.07 0.09 0.09 99 1004.1
20260506050846 48 316 1.0 3.0 0.05 0.08 0.08 99 1004.1
20260506050343 48 264 0.0 0.0 0.12 0.08 0.08 99 1004.5
20260506044833 48 282 1.0 2.0 0.00 0.05 0.05 99 1004.5
20260506044332 48 270 0.0 3.0 0.07 0.05 0.05 99 1004.5
20260506043828 48 289 0.0 2.0 0.07 0.05 0.05 99 1004.3
20260506043326 48 296 0.0 0.0 0.05 0.04 0.04 99 1004.5
20260506042824 48 322 0.0 1.0 0.05 0.04 0.04 99 1004.8
20260506042323 48 312 0.0 1.0 0.07 0.03 0.03 99 1004.5
20260506041821 48 285 0.0 1.0 0.12 0.03 0.03 99 1004.8
20260506041318 48 352 0.0 2.0 0.12 0.02 0.02 99 1004.7
20260506040815 48 281 0.0 1.0 0.07 0.01 0.01 99 1004.8
20260506040312 48 287 0.0 1.0 0.07 0.00 0.00 99 1004.8
20260506035808 48 267 1.0 3.0 0.12 0.99 0.99 99 1005.0
20260506035306 48 331 0.0 1.0 0.12 0.98 0.98 99 1004.9
20260506034803 49 283 0.0 0.0 0.19 0.97 0.97 99 1004.8
20260506034300 49 328 2.0 3.0 0.24 0.96 0.96 99 1004.9
20260506033757 49 275 0.0 2.0 0.17 0.94 0.94 99 1004.9
20260506033253 49 269 0.0 1.0 0.12 0.92 0.92 99 1005.0
20260506032751 49 276 0.0 1.0 0.07 0.91 0.91 99 1004.8
20260506032247 49 276 0.0 1.0 0.05 0.90 0.90 99 1005.0
20260506031744 49 359 1.0 2.0 0.05 0.90 0.90 99 1004.8
20260506031241 49 295 2.0 5.0 0.07 0.89 0.89 99 1004.9
20260506030739 49 253 1.0 3.0 0.07 0.89 0.89 99 1005.1
20260506030237 50 311 1.0 3.0 0.05 0.88 0.88 99 1005.0
20260506025733 50 274 0.0 2.0 0.05 0.88 0.88 99 1005.0
20260506025229 50 271 0.0 1.0 0.07 0.87 0.87 99 1004.9
20260506024721 50 308 1.0 2.0 0.07 0.87 0.87 99 1004.9
20260506024218 50 322 0.0 1.0 0.07 0.86 0.86 99 1005.0
20260506023714 50 305 1.0 1.0 0.07 0.86 0.86 99 1005.0
20260506023211 50 342 1.0 2.0 0.05 0.85 0.85 99 1005.3
20260506022708 50 306 0.0 1.0 0.05 0.85 0.85 99 1005.2
20260506022206 50 265 0.0 1.0 0.00 0.84 0.84 99 1005.2
20260506021704 50 285 0.0 1.0 0.12 0.84 0.84 99 1005.5
20260506021200 50 274 1.0 3.0 0.24 0.84 0.84 99 1005.2
20260506020657 50 100 1.0 1.0 0.42 0.82 0.82 99 1005.0
20260506020155 51 309 4.0 5.0 0.85 0.80 0.80 99 1004.9
20260506015652 51 334 2.0 2.0 0.97 0.74 0.74 99 1005.0
20260506015150 52 25 1.0 2.0 0.54 0.65 0.65 99 1004.6
20260506014646 52 268 0.0 2.0 0.31 0.58 0.58 99 1004.3
20260506014142 53 248 0.0 0.0 0.35 0.55 0.55 99 1004.2
20260506013640 54 308 1.0 2.0 0.38 0.52 0.52 99 1004.3
20260506013137 55 307 1.0 1.0 0.17 0.48 0.48 99 1003.9
20260506012633 55 269 0.0 1.0 0.12 0.46 0.46 99 1003.9
20260506012130 56 296 0.0 1.0 0.12 0.45 0.45 99 1004.0
20260506011627 56 280 0.0 0.0 0.05 0.44 0.44 99 1004.0
20260506011123 56 278 0.0 0.0 0.07 0.43 0.43 99 1003.9
20260506010622 57 271 0.0 2.0 0.12 0.43 0.43 99 1003.8
20260506010119 57 288 0.0 2.0 0.12 0.42 0.42 99 1003.7
20260506005616 57 256 0.0 0.0 0.12 0.41 0.41 99 1003.9
20260506005112 57 271 0.0 0.0 0.05 0.40 0.40 99 1003.8
20260506004609 57 261 0.0 1.0 0.07 0.39 0.39 99 1004.0
20260506004106 57 259 0.0 2.0 0.12 0.39 0.39 99 1003.9
20260506003602 57 256 0.0 2.0 0.12 0.38 0.38 99 1003.9
20260506003058 57 254 0.0 0.0 0.14 0.37 0.37 99 1004.0
20260506002554 57 263 0.0 1.0 0.12 0.36 0.36 99 1003.8
20260506002050 57 234 0.0 0.0 0.05 0.35 0.35 99 1004.0
20260506001547 57 260 0.0 0.0 0.07 0.34 0.34 99 1004.0
20260506001044 57 260 0.0 0.0 0.07 0.34 0.34 99 1003.9
20260506000542 57 260 0.0 0.0 0.00 0.33 0.33 99 1003.8
20260506000039 57 260 0.0 0.0 0.00 0.33 0.33 99 1004.0
20260505235537 57 260 0.0 0.0 0.00 0.33 0.33 99 1004.1
20260505235033 57 260 0.0 0.0 0.00 0.33 0.33 99 1003.9
20260505234530 57 260 0.0 0.0 0.00 0.33 0.33 99 1003.9
20260505234027 57 260 0.0 0.0 0.05 0.33 0.33 99 1004.0
20260505233525 57 257 0.0 0.0 0.12 0.33 0.33 99 1004.1
20260505233022 57 268 0.0 0.0 0.07 0.32 0.32 99 1004.0
20260505232520 57 272 0.0 0.0 0.05 0.31 0.31 99 1004.1
20260505232017 57 281 0.0 1.0 0.07 0.30 0.30 99 1004.5
20260505231514 57 283 1.0 1.0 0.12 0.30 0.30 99 1004.2
20260505231013 57 263 0.0 2.0 0.12 0.29 0.29 99 1004.3
20260505230509 57 274 1.0 2.0 0.19 0.28 0.28 99 1004.5
20260505230006 57 275 1.0 3.0 0.78 0.27 0.27 99 1004.5
20260505225503 58 311 1.0 2.0 1.16 0.24 0.24 98 1004.8
20260505224959 58 327 3.0 6.0 0.59 0.12 0.12 98 1004.9
20260505224456 59 294 0.0 2.0 0.12 0.04 0.04 97 1004.7
20260505223953 59 295 1.0 2.0 0.00 0.02 0.02 96 1004.2
20260505223450 59 298 1.0 2.0 0.00 0.02 0.02 96 1004.0
20260505222946 59 267 0.0 1.0 0.00 0.02 0.02 96 1003.8
20260505222443 59 253 1.0 1.0 0.00 0.02 0.02 95 1003.7
20260505221938 59 290 1.0 1.0 0.00 0.02 0.02 95 1003.7
20260505221436 60 275 0.0 1.0 0.00 0.02 0.02 95 1003.9
20260505220933 59 281 1.0 1.0 0.00 0.02 0.02 95 1003.8
20260505220430 59 271 0.0 0.0 0.00 0.02 0.02 95 1004.0
20260505215927 60 290 0.0 1.0 0.00 0.02 0.02 95 1003.7
20260505215425 59 21 0.0 1.0 0.00 0.02 0.02 94 1003.4
20260505214923 59 263 0.0 1.0 0.00 0.02 0.02 94 1003.9
20260505214421 59 268 0.0 0.0 0.00 0.02 0.02 95 1004.1
20260505213918 59 255 0.0 1.0 0.00 0.02 0.02 95 1003.9
20260505213415 60 280 0.0 1.0 0.00 0.02 0.02 95 1003.8
20260505212911 60 270 0.0 2.0 0.00 0.02 0.02 94 1003.8
20260505212408 60 276 1.0 1.0 0.00 0.02 0.02 94 1003.5
20260505211905 59 269 0.0 0.0 0.00 0.02 0.02 94 1003.9
20260505211402 59 304 2.0 5.0 0.00 0.02 0.02 95 1003.9
20260505210858 60 258 2.0 2.0 0.00 0.02 0.02 95 1003.9
20260505210356 59 283 1.0 5.0 0.00 0.02 0.02 95 1003.9
20260505205852 60 277 1.0 3.0 0.00 0.02 0.02 96 1003.9
20260505205351 60 269 0.0 1.0 0.00 0.02 0.02 96 1004.0
20260505204847 60 272 0.0 2.0 0.00 0.02 0.02 95 1004.0
20260505204345 60 254 1.0 1.0 0.00 0.02 0.02 94 1004.2
20260505203842 60 270 1.0 3.0 0.00 0.02 0.02 93 1004.2
20260505203338 61 299 1.0 1.0 0.07 0.02 0.02 92 1004.2
20260505202835 62 296 3.0 3.0 0.07 0.02 0.02 89 1004.1
20260505202331 62 256 3.0 5.0 0.05 0.01 0.01 87 1004.0
20260505201828 63 270 1.0 1.0 0.05 0.01 0.01 84 1003.8
20260505201325 64 279 0.0 0.0 0.00 0.00 0.00 81 1004.0
20260505200824 65 356 0.0 1.0 0.00 0.00 0.00 76 1004.0
20260505200320 65 238 0.0 0.0 0.00 0.00 0.00 75 1004.0
20260505195815 65 270 0.0 0.0 0.00 0.00 0.00 76 1003.8
20260505195313 65 250 0.0 1.0 0.00 0.00 0.00 75 1003.8
20260505194810 65 213 0.0 1.0 0.00 0.00 0.00 74 1003.7
20260505194307 65 257 1.0 2.0 0.00 0.00 0.00 75 1004.1
20260505193802 65 172 0.0 2.0 0.00 0.00 0.00 74 1004.0
20260505193300 66 319 2.0 2.0 0.00 0.00 0.00 74 1003.9
20260505192758 66 304 1.0 3.0 0.00 0.00 0.00 73 1004.1
20260505192256 66 250 0.0 3.0 0.00 0.00 0.00 71 1004.0
20260505191754 67 261 1.0 2.0 0.00 0.00 0.00 71 1004.1
20260505191252 67 302 1.0 1.0 0.00 0.00 0.00 70 1004.1
20260505190748 68 270 0.0 2.0 0.00 0.00 0.00 70 1003.9
20260505190243 67 258 0.0 2.0 0.00 0.00 0.00 69 1004.0
20260505185740 66 147 3.0 3.0 0.00 0.00 0.00 71 1004.1
20260505185236 66 197 2.0 2.0 0.00 0.00 0.00 70 1004.1
20260505184732 66 248 1.0 2.0 0.00 0.00 0.00 71 1004.2
20260505184230 67 178 1.0 3.0 0.00 0.00 0.00 70 1004.3
20260505183726 67 231 2.0 2.0 0.00 0.00 0.00 70 1004.7
20260505183224 67 116 2.0 3.0 0.00 0.00 0.00 70 1004.6
20260505182720 67 267 3.0 3.0 0.00 0.00 0.00 70 1004.7
20260505182217 67 126 1.0 3.0 0.00 0.00 0.00 71 1005.0
20260505181713 66 327 1.0 6.0 0.00 0.00 0.00 71 1004.7
20260505181211 66 66 1.0 3.0 0.00 0.00 0.00 71 1004.8
20260505180707 66 229 1.0 2.0 0.00 0.00 0.00 71 1005.0
20260505180204 66 118 1.0 5.0 0.00 0.00 0.00 71 1004.7
20260505175700 66 57 2.0 7.0 0.00 0.00 0.00 70 1004.6
20260505175157 67 156 3.0 5.0 0.00 0.00 0.00 71 1004.6
20260505174653 67 222 2.0 3.0 0.00 0.00 0.00 69 1004.3
20260505174149 67 265 2.0 3.0 0.00 0.00 0.00 69 1004.3
20260505173646 68 200 0.0 7.0 0.00 0.00 0.00 68 1004.7
20260505173143 67 266 2.0 3.0 0.00 0.00 0.00 69 1004.3
20260505172641 67 284 2.0 5.0 0.00 0.00 0.00 69 1004.1
20260505172137 67 245 2.0 7.0 0.00 0.00 0.00 69 1004.5
20260505171632 67 110 1.0 5.0 0.00 0.00 0.00 69 1004.3
20260505171129 68 356 3.0 5.0 0.00 0.00 0.00 68 1004.3
20260505170627 68 232 2.0 11.0 0.00 0.00 0.00 69 1004.6
20260505170123 68 286 2.0 7.0 0.00 0.00 0.00 68 1004.6
20260505165617 68 145 1.0 3.0 0.00 0.00 0.00 68 1004.3
20260505165114 68 67 1.0 2.0 0.00 0.00 0.00 68 1004.2
20260505164610 68 125 3.0 7.0 0.00 0.00 0.00 67 1004.3
20260505164108 68 100 1.0 5.0 0.00 0.00 0.00 66 1004.0
20260505163606 69 275 0.0 2.0 0.00 0.00 0.00 65 1004.3
20260505163103 70 260 3.0 6.0 0.00 0.00 0.00 64 1004.5
20260505162600 70 216 1.0 8.0 0.00 0.00 0.00 64 1004.2
20260505162058 70 276 6.0 8.0 0.00 0.00 0.00 64 1004.3
20260505161555 70 343 3.0 3.0 0.00 0.00 0.00 65 1004.1
20260505161052 71 203 2.0 7.0 0.00 0.00 0.00 64 1004.3
20260505160550 70 193 2.0 8.0 0.00 0.00 0.00 65 1004.2
20260505153026 69 284 1.0 5.0 0.00 0.00 0.00 68 1003.6
20260505152523 69 239 0.0 5.0 0.00 0.00 0.00 69 1003.5
20260505152019 69 151 2.0 5.0 0.00 0.00 0.00 69 1003.5
20260505151514 68 359 2.0 3.0 0.00 0.00 0.00 68 1003.5
20260505151012 68 64 2.0 6.0 0.00 0.00 0.00 68 1004.0
20260505150508 69 16 5.0 8.0 0.00 0.00 0.00 67 1003.6
20260505140433 66 168 1.0 6.0 0.00 0.00 0.00 72 1003.6
20260505124847 61 268 0.0 1.0 0.00 0.00 0.00 79 1003.7
20260505124344 61 275 0.0 2.0 0.00 0.00 0.00 78 1003.3
20260505123840 61 257 1.0 2.0 0.00 0.00 0.00 78 1003.3